Weather History for Trabzon, Turkey

Change the Weather History Date:

Saturday, June 29, 2013

  Actual Average Record
Temperature  
Mean Temperature 76 °F -  
Max Temperature 82 °F 77 °F - ()
Min Temperature 71 °F 68 °F - ()
Cooling Degree Days 12    
Growing Degree Days 26 (Base 50)    
Moisture  
Dew Point 68 °F    
Average Humidity 73    
Maximum Humidity 83    
Minimum Humidity 59    
Precipitation  
Precipitation 0.00 in - - ()
Sea Level Pressure  
Sea Level Pressure 29.81 in    
Wind  
Wind Speed 3 mph ()    
Max Wind Speed 8 mph    
Max Gust Speed 15 mph    
Visibility 6.9 miles    
Events      
T = Trace of Precipitation, MM = Missing Value Source: Averaged Metar Reports

Daily Weather History Graph

Daily Weather History Graph

Search for Another Location

Airport:

Trip Planner

Search our weather history database for the weather conditions in past years. The results will help you decide how hot, cold, wet, or windy it might be!

Date:

Astronomy

Jun. 29, 2013 Rise Set
Actual Time 4:51 AM EEST 7:57 PM EEST
Civil Twilight 4:17 AM EEST 8:30 PM EEST
Nautical Twilight 3:35 AM EEST 9:13 PM EEST
Astronomical Twilight 2:44 AM EEST 10:03 PM EEST
Moon 11:42 PM EEST (6/29) 11:43 AM EEST (6/29)
Length of Visible Light 16h 12m
Length of Day
15h 05m
Waning Gibbous, 59% of the Moon is Illuminated
Jun 29
Waning Gibbous
Jun 30
Last Quarter
Jul 8
New
Jul 16
First Quarter
Jul 22
Full

Hourly Weather History & Observations

Time (EEST) Temp. Heat Index Dew Point Humidity Pressure Visibility Wind Dir Wind Speed Gust Speed Precip Events Conditions
12:20 AM 73.4 °F - 68.0 °F 83% 29.80 in - Variable 1.2 mph - N/A   Clear
12:50 AM 73.4 °F - 68.0 °F 83% 29.80 in - Calm Calm - N/A   Clear
1:20 AM 73.4 °F - 68.0 °F 83% 29.80 in - Calm Calm - N/A   Clear
1:50 AM 73.4 °F - 66.2 °F 78% 29.80 in - Calm Calm - N/A   Clear
2:20 AM 73.4 °F - 66.2 °F 78% 29.80 in - Calm Calm - N/A   Clear
2:50 AM 71.6 °F - 66.2 °F 83% 29.80 in - Calm Calm - N/A   Clear
3:00 AM 72 °F - 67 °F 78% 29.80 in 12 mi Calm Calm - -  
3:20 AM 71.6 °F - 66.2 °F 83% 29.80 in - Variable 1.2 mph 15.0 mph N/A   Clear
3:50 AM 71.6 °F - 66.2 °F 83% 29.80 in - Variable 1.2 mph - N/A   Clear
4:20 AM 71.6 °F - 66.2 °F 83% 29.80 in - Calm Calm - N/A   Clear
4:50 AM 71.6 °F - 66.2 °F 83% 29.80 in - South 5.8 mph - N/A   Clear
5:20 AM 71.6 °F - 66.2 °F 83% 29.80 in - SW 4.6 mph - N/A   Clear
5:50 AM 75.2 °F - 66.2 °F 73% 29.80 in - SSW 3.5 mph - N/A   Clear
6:20 AM 75.2 °F - 64.4 °F 69% 29.80 in - Calm Calm - N/A   Clear
6:50 AM 77.0 °F - 62.6 °F 61% 29.80 in - WSW 6.9 mph - N/A   Clear
7:20 AM 77.0 °F - 64.4 °F 65% 29.80 in - West 6.9 mph - N/A   Clear
7:50 AM 77.0 °F - 66.2 °F 69% 29.80 in - WNW 8.1 mph - N/A   Clear
8:20 AM 78.8 °F - 66.2 °F 65% 29.83 in - West 8.1 mph - N/A   Clear
8:50 AM 78.8 °F - 66.2 °F 65% 29.83 in - NW 6.9 mph - N/A   Clear
9:00 AM 78 °F - 67 °F 60% 29.83 in 12 mi NW 6.9 mph - -  
9:20 AM 78.8 °F - 66.2 °F 65% 29.83 in 6.2 mi NW 5.8 mph - N/A   Partly Cloudy
9:50 AM 78.8 °F - 66.2 °F 65% 29.83 in 6.2 mi NW 5.8 mph - N/A   Partly Cloudy
10:20 AM 78.8 °F - 68.0 °F 69% 29.83 in 6.2 mi NW 6.9 mph - N/A   Partly Cloudy
10:50 AM 78.8 °F - 68.0 °F 69% 0.30 in 6.2 mi NNW 6.9 mph - N/A   Partly Cloudy
11:20 AM 80.6 °F 83.9 °F 69.8 °F 70% 29.83 in 6.2 mi North 5.8 mph - N/A   Partly Cloudy
11:50 AM 80.6 °F 83.9 °F 69.8 °F 70% 29.83 in 6.2 mi NNW 5.8 mph - N/A   Scattered Clouds
12:20 PM 80.6 °F 83.9 °F 69.8 °F 70% 29.83 in 6.2 mi NW 6.9 mph - N/A   Scattered Clouds
12:50 PM 80.6 °F 83.9 °F 69.8 °F 70% 29.83 in 6.2 mi Variable 6.9 mph - N/A   Scattered Clouds
1:20 PM 80.6 °F 83.9 °F 69.8 °F 70% 29.83 in 6.2 mi NNW 6.9 mph - N/A   Scattered Clouds
1:50 PM 80.6 °F 83.9 °F 69.8 °F 70% 29.83 in 6.2 mi North 6.9 mph - N/A   Scattered Clouds
2:20 PM 80.6 °F 83.9 °F 69.8 °F 70% 29.83 in 6.2 mi NNW 5.8 mph - N/A   Scattered Clouds
2:50 PM 80.6 °F 83.9 °F 69.8 °F 70% 29.83 in 6.2 mi Variable 5.8 mph - N/A   Scattered Clouds
3:00 PM 81 °F - 69 °F 59% 29.83 in 12 mi NNE 5.8 mph - -   Partly Cloudy
3:20 PM 80.6 °F 83.2 °F 68.0 °F 65% 29.83 in 6.2 mi Variable 4.6 mph - N/A   Scattered Clouds
3:50 PM 80.6 °F 83.9 °F 69.8 °F 70% 29.83 in 6.2 mi Variable 3.5 mph - N/A   Scattered Clouds
4:20 PM 80.6 °F 83.2 °F 68.0 °F 65% 29.80 in 6.2 mi North 5.8 mph - N/A   Scattered Clouds
4:50 PM 80.6 °F 83.9 °F 69.8 °F 70% 29.80 in 6.2 mi NNW 4.6 mph - N/A   Scattered Clouds
5:20 PM 80.6 °F 83.2 °F 68.0 °F 65% 29.80 in 6.2 mi NNW 4.6 mph - N/A   Scattered Clouds
5:50 PM 80.6 °F 83.9 °F 69.8 °F 70% 29.80 in 6.2 mi NNW 4.6 mph - N/A   Scattered Clouds
6:20 PM 80.6 °F 83.9 °F 69.8 °F 70% 29.80 in 6.2 mi Variable 3.5 mph - N/A   Scattered Clouds
6:50 PM 78.8 °F - 69.8 °F 74% 29.80 in 6.2 mi North 3.5 mph - N/A   Scattered Clouds
7:20 PM 78.8 °F - 69.8 °F 74% 29.80 in 6.2 mi NNE 3.5 mph - N/A   Scattered Clouds
7:50 PM 77.0 °F - 69.8 °F 78% 29.80 in 6.2 mi Variable 1.2 mph - N/A   Partly Cloudy
8:20 PM 77.0 °F - 69.8 °F 78% 29.80 in 6.2 mi Calm Calm - N/A   Partly Cloudy
8:50 PM 77.0 °F - 69.8 °F 78% 29.83 in 6.2 mi ESE 4.6 mph - N/A   Partly Cloudy
9:00 PM 77 °F - 69 °F 70% 29.83 in 12 mi ESE 4.6 mph - -   Scattered Clouds
9:20 PM 77.0 °F - 69.8 °F 78% 29.83 in 6.2 mi SSW 3.5 mph - N/A   Partly Cloudy
9:50 PM 77.0 °F - 68.0 °F 74% 29.83 in 6.2 mi SSW 4.6 mph - N/A   Scattered Clouds
10:20 PM 75.2 °F - 68.0 °F 78% 29.83 in 6.2 mi SSW 4.6 mph - N/A   Scattered Clouds
10:50 PM 75.2 °F - 68.0 °F 78% 29.83 in 6.2 mi SSW 4.6 mph - N/A   Scattered Clouds
11:20 PM 75.2 °F - 68.0 °F 78% 29.80 in 6.2 mi SSW 4.6 mph - N/A   Partly Cloudy
11:50 PM 75.2 °F - 68.0 °F 78% 29.80 in - SSW 4.6 mph - N/A   Clear